Regional Weather Roundup
Issued by NWS Mobile, AL

Home | Current Version | Previous Version | Text Only | Print | Product List | Glossary On
Versions: 1 2 3 4 5 6 7 8 9 10 11 12 13 14 15 16 17 18 19 20 21 22 23 24 25 26 27 28 29 30 31 32 33 34 35 36 37 38 39 40 41 42 43 44 45 46 47 48 49 50
000
ASUS44 KMOB 020316
RWRMOB
REGIONAL WEATHER ROUNDUP
NATIONAL WEATHER SERVICE MOBILE AL
1000 PM CDT TUE SEP 01 2015

ALZ061>064-020400-
COASTAL ALABAMA


CITY           SKY/WX    TMP DP  RH WIND       PRES   REMARKS
MOBILE REG APT PTCLDY    76  71  85 W3        30.06R
BROOKLEY FIELD CLEAR     80  71  74 W3        30.06R
GULF SHORES    PTCLDY    76  73  92 CALM      30.05R

$$

ALZ051>060-020400-
INTERIOR SOUTHWEST AND SOUTH CENTRAL ALABAMA


CITY           SKY/WX    TMP DP  RH WIND       PRES   REMARKS
ANDALUSIA/OPP  CLEAR     80  73  79 CALM      30.05S
EVERGREEN      MOCLDY    76  74  93 S3        30.06R
FLORALA        PTCLDY    75  71  87 CALM      30.07R
GREENVILLE     FAIR      77  72  84 CALM      30.06R

$$

FLZ001>006-020400-
WESTERN FLORIDA PANHANDLE


CITY           SKY/WX    TMP DP  RH WIND       PRES   REMARKS
CRESTVIEW      PTCLDY    77  72  84 CALM      30.06R
DESTIN         PTCLDY    85  74  69 CALM      30.04R
DUKE FIELD     PTCLDY    79  70  74 CALM      30.05R
MARY ESTHER    PTCLDY    82  70  66 NW2       30.03
MILTON         MOCLDY    82  71  69 NW3       30.04R
PENSACOLA      MOCLDY    82  71  69 W5        30.04R
NAS PENSACOLA  MOCLDY    77  72  84 NW3       30.04R
VALPARAISO     PTCLDY    82  72  71 CALM      30.05R

$$

...MARINE OBSERVATIONS...

STATION/POSITION TIME  SKY/WX   TEMP    WIND        PRES    VSBY
                                AIR SEA DIR/SP/G
                 (UTC)          (F)     (DEG/KT/KT) (MB)    (MI)
PASCAGOULA       0200            84     250/  4/  6 1017.1R
GRAND BAY        0145            83     280/  4     1018.0
PETIT BOIS ISL   0200            84     240/  6/  7 1017.7R
E DAUPHIN ISLAND 0300            83     270/  3/  4 1017.4R
MIDDLE BAY LIGHT 0200                   260/  9     1016.9R
USCG MOBILE BAY  0200            83 85  260/  3/  4 1016.2R
STATE DOCKS      0200            85 85              1016.9R
MEAHER PARK      0300            84     260/  6     1016.9R
FORT MORGAN      0200            84     270/  7/  8 1016.6R
12 S ORANGE BCH  0250            85 86  250/  4/  6 1016.8R
WVE H/P(F/S)=  1/ 6

PENSACOLA BAY    0200            84 86  290/  2/  4 1017.2R
64 S DAUPHIN ISL 0250            84 86  150/  6/  8 1017.7R
WVE H/P(F/S)=  1/ 4

115 SE PENSACOLA 0250            82 86   50/  6/  8 1017.8R
WVE H/P(F/S)=  2/ 5

MID GULF/42001   0300            84 85  110/  8/ 10 1017.0R
EAST GULF/42003  0250            83 86   90/  2/  4 1017.7R
WVE H/P(F/S)=  2/ 5


$$

...NEARBY LOCATIONS

CITY           SKY/WX    TMP DP  RH WIND       PRES   REMARKS
GULFPORT       CLEAR     77  72  84 CALM      30.04R
BILOXI         CLEAR     80  74  80 CALM      30.04R
PASCAGOULA     CLEAR     72  71  97 CALM      30.05R
HATTIESBURG    PTCLDY    82  66  58 CALM      30.06R
LAUREL         PTCLDY    79  63  57 SW3       30.08R
MERIDIAN       PTCLDY    75  72  90 CALM      30.06R
MERIDIAN NAS   MOCLDY    77  72  84 CALM      30.06S
MONTGOMERY     PTCLDY    80  70  71 CALM      30.06R
MAXWELL AFB    PTCLDY    77  75  94 N1        30.05R
TROY           CLEAR     76  72  87 CALM      30.07S
FORT RUCKER    CLEAR     74  70  87 NE3       30.05R
DALEVILLE      MOCLDY    77  70  79 NE7       30.05S
DOTHAN         MOCLDY    79  71  76 E6        30.10R

$$

...OTHER SURROUNDING LOCATIONS...

CITY           SKY/WX    TMP DP  RH WIND       PRES   REMARKS
BIRMINGHAM     PTCLDY    77  72  84 CALM      30.11R
TUSCALOOSA     PTCLDY    76  72  87 CALM      30.07R
COLUMBUS GA    PTCLDY    78  70  76 E3        30.07R
PANAMA CITY    NOT AVBL
TALLAHASSEE    MOCLDY    80  75  84 E8        30.06R
BATON ROUGE    CLOUDY    81  72  74 SW7       30.05R
NEW ORLEANS    CLOUDY    81  72  74 S3        30.05R
SLIDELL        MOCLDY    77  74  90 CALM      30.05R
JACKSON        CLOUDY    75  70  84 N5        30.05F
MCCOMB         PTCLDY    80  67  64 CALM      30.07R

$$

...SURROUNDING MARINE OBSERVATIONS...

STATION/POSITION TIME  SKY/WX   TEMP    WIND        PRES    VSBY
                                AIR SEA DIR/SP/G
                 (UTC)          (F)     (DEG/KT/KT) (MB)    (MI)
WAVELAND         0200            82 86  230/  3/  3 1017.4R
PASCAGOULA RGN A 0200            84     250/  5/  6 1016.7R
PASCAGOULA PORT  0200               88                N/A
GRAND ISLE       0200            85 87  150/  5/  8 1017.2R
SOUTHWEST PASS   0300                                 N/A
PILOT STATION E  0200            84 86  130/  6/ 10 1017.5R
SHELL BEACH      0200            82 87  130/  5/  6 1016.6R
PANAMA CITY      0200            82 87   80/  3/ 12 1017.1R
APALACHICOLA     0200            79 86   CALM  /  2 1017.2R
TYNDALL TOWER C  0300            81      70/  8/  9 1017.2S
S APLCHCLA/42036 0250            81 85   CALM  /  2 1017.4R
WVE H/P(F/S)=  2/ 5


$$



USA.gov is the U.S. government's official web portal to all federal, state and local government web resources and services.